sat.trackr.live / text

‹ back to catalog

STARLINK-35370

NORAD 66085 · 2025-235AD

PAYLOAD ACTIVE UNKNOWN

§ Identity

Operator
Country
US
Launch date
2025-10-19
Launch site
AFETR
Launch vehicle
Mass (kg)
RCS (m²)

Purposes: comms

External: N2YO · Heavens-Above · Gunter

§ Orbital elements

Epoch: 2026-09-20T21:48:51.734304Z

Period
93.85 min
Inclination
53.1608°
Eccentricity
0.0000755
Mean motion
15.34407133 rev/d
Perigee alt
462.2 km
Apogee alt
463.2 km
Semi-major
6,840.8 km
B*
5.5871e-4
RAAN
57.5566°
Arg perigee
8.5364°
Mean anomaly
351.5651°
Rev number
5,279

§ Raw data

STARLINK-353701 66085U 25235AD  26263.90893211  .00018552  00000+0  55871-3 0  99932 66085  53.1608  57.5566 0000755   8.5364 351.5651 15.34407133 52797

JSON: /api/v1/satellites/66085 · /tle

For live sub-satellite position, see the globe view (requires WebGL).

§ Visibility from observer

Set your observer location to see the next 7 days of passes ≥ 10°. The values pass through the URL so the page stays shareable.

No JS? Fill the form by hand. The geolocation button needs JavaScript.